30-05-2022, 00:00:00,     25,    0.0,    6.0,   0.00,   0.00, 1012.6,   77.0, -999.0
30-05-2022, 00:00:09,     25,    0.0,    6.0,   0.00,   0.00, 1012.6,   77.0, -999.0
30-05-2022, 00:00:19,     26,    0.0,    5.9,   0.00,   0.00, 1012.6,   77.0, -999.0
30-05-2022, 00:00:30,     26,    0.0,    5.9,   0.00,   0.00, 1012.6,   77.0, -999.0
30-05-2022, 00:00:39,     26,    0.0,    5.9,   0.00,   0.00, 1012.6,   77.1, -999.0
30-05-2022, 00:00:49,     25,    0.0,    5.9,   0.00,   0.00, 1012.7,   77.2, -999.0
30-05-2022, 00:00:59,     26,    0.0,    5.9,   0.00,   0.00, 1012.6,   77.2, -999.0
30-05-2022, 00:01:09,     26,    0.0,    5.9,   0.00,   0.00, 1012.6,   77.2, -999.0
30-05-2022, 00:01:19,     26,    0.0,    5.8,   0.00,   0.00, 1012.6,   77.3, -999.0
30-05-2022, 00:01:29,     26,    0.0,    5.9,   0.00,   0.00, 1012.6,   77.3, -999.0
30-05-2022, 00:01:39,     25,    0.0,    5.9,   0.00,   0.00, 1012.6,   77.3, -999.0
30-05-2022, 00:01:49,     25,    0.0,    5.8,   0.00,   0.00, 1012.6,   77.5, -999.0
30-05-2022, 00:01:59,     26,    0.0,    5.9,   0.00,   0.00, 1012.6,   77.5, -999.0
30-05-2022, 00:02:09,     26,    0.0,    5.8,   0.00,   0.00, 1012.7,   77.5, -999.0
30-05-2022, 00:02:19,     26,    0.0,    5.9,   0.00,   0.00, 1012.7,   77.6, -999.0
30-05-2022, 00:02:29,     26,    0.0,    5.9,   0.00,   0.00, 1012.7,   77.7, -999.0
30-05-2022, 00:02:39,     26,    0.0,    5.9,   0.00,   0.00, 1012.7,   77.7, -999.0
30-05-2022, 00:02:48,     26,    0.0,    5.9,   0.00,   0.00, 1012.6,   77.7, -999.0
30-05-2022, 00:02:59,     25,    0.0,    5.9,   0.00,   0.00, 1012.6,   77.8, -999.0
30-05-2022, 00:03:09,     26,    0.0,    5.9,   0.00,   0.00, 1012.7,   77.7, -999.0
30-05-2022, 00:03:18,     25,    0.0,    5.9,   0.00,   0.00, 1012.7,   77.8, -999.0
30-05-2022, 00:03:29,     25,    0.0,    6.0,   0.00,   0.00, 1012.7,   77.7, -999.0
30-05-2022, 00:03:39,     25,    0.0,    6.0,   0.00,   0.00, 1012.7,   77.8, -999.0
30-05-2022, 00:03:48,     25,    0.0,    6.0,   0.00,   0.00, 1012.7,   77.7, -999.0
30-05-2022, 00:03:58,     26,    0.0,    6.0,   0.00,   0.00, 1012.7,   77.9, -999.0
30-05-2022, 00:04:09,     26,    0.0,    6.0,   0.00,   0.00, 1012.7,   77.9, -999.0
30-05-2022, 00:04:18,     26,    0.0,    6.0,   0.00,   0.00, 1012.7,   77.9, -999.0
30-05-2022, 00:04:28,     26,    0.0,    6.0,   0.00,   0.00, 1012.7,   78.0, -999.0
30-05-2022, 00:04:38,     25,    0.0,    6.0,   0.00,   0.00, 1012.7,   77.9, -999.0
30-05-2022, 00:04:48,     26,    0.0,    6.0,   0.00,   0.00, 1012.6,   77.8, -999.0
30-05-2022, 00:04:58,     26,    0.0,    6.1,   0.00,   0.00, 1012.6,   77.8, -999.0
30-05-2022, 00:05:08,     25,    0.0,    6.0,   0.00,   0.00, 1012.7,   77.9, -999.0
30-05-2022, 00:05:18,     25,    0.0,    6.1,   0.00,   0.00, 1012.7,   77.9, -999.0
30-05-2022, 00:05:28,     25,    0.0,    6.1,   0.00,   0.00, 1012.7,   77.9, -999.0
30-05-2022, 00:05:38,     26,    0.0,    6.1,   0.00,   0.00, 1012.7,   77.8, -999.0
30-05-2022, 00:05:48,     26,    0.0,    6.0,   0.00,   0.00, 1012.7,   77.6, -999.0
30-05-2022, 00:05:58,     26,    0.0,    5.9,   0.00,   0.00, 1012.7,   77.5, -999.0
30-05-2022, 00:06:08,     26,    0.0,    6.0,   0.00,   0.00, 1012.7,   77.6, -999.0
30-05-2022, 00:06:18,     25,    0.0,    6.0,   0.00,   0.00, 1012.7,   77.6, -999.0
30-05-2022, 00:06:27,     26,    0.0,    6.0,   0.00,   0.00, 1012.6,   77.6, -999.0
30-05-2022, 00:06:38,     26,    0.0,    6.0,   0.00,   0.00, 1012.7,   77.6, -999.0
30-05-2022, 00:06:48,     26,    0.0,    6.0,   0.00,   0.00, 1012.7,   77.5, -999.0
30-05-2022, 00:06:57,     26,    0.0,    6.0,   0.00,   0.00, 1012.7,   77.6, -999.0
30-05-2022, 00:07:07,     26,    0.0,    6.1,   0.00,   0.00, 1012.7,   77.6, -999.0
30-05-2022, 00:07:18,     25,    0.0,    6.1,   0.00,   0.00, 1012.7,   77.6, -999.0
30-05-2022, 00:07:27,     25,    0.0,    6.1,   0.00,   0.00, 1012.7,   77.6, -999.0
30-05-2022, 00:07:37,     26,    0.0,    6.1,   0.00,   0.00, 1012.7,   77.6, -999.0
30-05-2022, 00:07:47,     25,    0.0,    6.0,   0.00,   0.00, 1012.7,   77.6, -999.0
30-05-2022, 00:07:57,     25,    0.0,    6.0,   0.00,   0.00, 1012.7,   77.6, -999.0
30-05-2022, 00:08:07,     25,    0.0,    6.0,   0.00,   0.00, 1012.7,   77.5, -999.0
30-05-2022, 00:08:17,     26,    0.0,    6.0,   0.00,   0.00, 1012.7,   77.6, -999.0
30-05-2022, 00:08:27,     26,    0.0,    6.1,   0.00,   0.00, 1012.7,   77.5, -999.0
30-05-2022, 00:08:37,     26,    0.0,    6.1,   0.00,   0.00, 1012.7,   77.5, -999.0
30-05-2022, 00:08:47,     25,    0.0,    6.1,   0.00,   0.00, 1012.7,   77.6, -999.0
30-05-2022, 00:08:57,     26,    0.0,    6.1,   0.00,   0.00, 1012.7,   77.7, -999.0
30-05-2022, 00:09:07,     25,    0.0,    6.1,   0.00,   0.00, 1012.7,   77.7, -999.0
30-05-2022, 00:09:17,     25,    0.0,    6.1,   0.00,   0.00, 1012.7,   77.6, -999.0
30-05-2022, 00:09:27,     26,    0.0,    6.1,   0.00,   0.00, 1012.6,   77.5, -999.0
30-05-2022, 00:09:37,     26,    0.0,    6.1,   0.00,   0.00, 1012.7,   77.4, -999.0
30-05-2022, 00:09:47,     26,    0.0,    6.1,   0.00,   0.00, 1012.7,   77.5, -999.0
30-05-2022, 00:09:57,     25,    0.0,    6.1,   0.00,   0.00, 1012.6,   77.4, -999.0
30-05-2022, 00:10:06,     26,    0.0,    6.0,   0.00,   0.00, 1012.6,   77.5, -999.0
30-05-2022, 00:10:16,     26,    0.0,    6.2,   0.00,   0.00, 1012.6,   77.4, -999.0
30-05-2022, 00:10:27,     25,    0.0,    6.1,   0.00,   0.00, 1012.6,   77.4, -999.0
30-05-2022, 00:10:36,     26,    0.0,    6.1,   0.00,   0.00, 1012.6,   77.3, -999.0
30-05-2022, 00:10:46,     25,    0.0,    6.1,   0.00,   0.00, 1012.7,   77.3, -999.0
30-05-2022, 00:10:56,     26,    0.0,    6.1,   0.00,   0.00, 1012.6,   77.3, -999.0
30-05-2022, 00:11:06,     25,    0.0,    6.0,   0.00,   0.00, 1012.6,   77.4, -999.0
30-05-2022, 00:11:16,     26,    0.0,    6.0,   0.00,   0.00, 1012.7,   77.3, -999.0
30-05-2022, 00:11:26,     26,    0.0,    6.0,   0.00,   0.00, 1012.7,   77.2, -999.0
30-05-2022, 00:11:36,     26,    0.0,    6.0,   0.00,   0.00, 1012.6,   77.1, -999.0
30-05-2022, 00:11:46,     25,    0.0,    6.0,   0.00,   0.00, 1012.7,   77.1, -999.0
30-05-2022, 00:11:56,     26,    0.0,    6.1,   0.00,   0.00, 1012.6,   77.2, -999.0
30-05-2022, 00:12:06,     26,    0.0,    6.1,   0.00,   0.00, 1012.6,   77.4, -999.0
30-05-2022, 00:12:16,     26,    0.0,    6.1,   0.00,   0.00, 1012.7,   77.4, -999.0
30-05-2022, 00:12:26,     26,    0.0,    6.1,   0.00,   0.00, 1012.6,   77.4, -999.0
30-05-2022, 00:12:36,     26,    0.0,    6.1,   0.00,   0.00, 1012.6,   77.3, -999.0
30-05-2022, 00:12:46,     25,    0.0,    6.2,   0.00,   0.00, 1012.6,   77.3, -999.0
30-05-2022, 00:12:56,     25,    0.0,    6.1,   0.00,   0.00, 1012.6,   77.2, -999.0
30-05-2022, 00:13:06,     26,    0.0,    6.1,   0.00,   0.00, 1012.6,   77.2, -999.0
30-05-2022, 00:13:16,     21,    0.0,    6.1,   0.00,   0.00, 1012.6,   77.2, -999.0
30-05-2022, 00:13:25,     26,    0.0,    6.1,   0.00,   0.00, 1012.6,   77.2, -999.0
30-05-2022, 00:13:36,     25,    0.0,    6.1,   0.00,   0.00, 1012.6,   77.2, -999.0
30-05-2022, 00:13:45,     26,    0.0,    6.2,   0.00,   0.00, 1012.7,   77.3, -999.0
30-05-2022, 00:13:55,     26,    0.0,    6.0,   0.00,   0.00, 1012.6,   77.2, -999.0
30-05-2022, 00:14:05,     26,    0.0,    6.1,   0.00,   0.00, 1012.6,   77.2, -999.0
30-05-2022, 00:14:15,     26,    0.0,    6.1,   0.00,   0.00, 1012.6,   77.2, -999.0
30-05-2022, 00:14:25,     26,    0.0,    6.1,   0.00,   0.00, 1012.6,   77.2, -999.0
30-05-2022, 00:14:35,     25,    0.0,    6.1,   0.00,   0.00, 1012.6,   77.2, -999.0
30-05-2022, 00:14:45,     26,    0.0,    6.1,   0.00,   0.00, 1012.6,   77.1, -999.0
30-05-2022, 00:14:55,     25,    0.0,    6.1,   0.00,   0.00, 1012.6,   77.1, -999.0
30-05-2022, 00:15:05,     25,    0.0,    6.1,   0.00,   0.00, 1012.6,   77.1, -999.0
30-05-2022, 00:15:15,     26,    0.0,    6.1,   0.00,   0.00, 1012.6,   77.1, -999.0
30-05-2022, 00:15:25,     26,    0.0,    6.1,   0.00,   0.00, 1012.6,   77.1, -999.0
30-05-2022, 00:15:35,     26,    0.0,    6.1,   0.00,   0.00, 1012.6,   77.1, -999.0
30-05-2022, 00:15:45,     25,    0.0,    6.1,   0.00,   0.00, 1012.6,   77.0, -999.0
30-05-2022, 00:15:55,     25,    0.0,    6.1,   0.00,   0.00, 1012.6,   77.0, -999.0
30-05-2022, 00:16:05,     26,    0.0,    6.1,   0.00,   0.00, 1012.6,   76.9, -999.0
30-05-2022, 00:16:15,     26,    0.0,    6.1,   0.00,   0.00, 1012.6,   77.1, -999.0
30-05-2022, 00:16:25,     26,    0.0,    6.1,   0.00,   0.00, 1012.6,   77.0, -999.0
30-05-2022, 00:16:34,     26,    0.0,    6.0,   0.00,   0.00, 1012.7,   77.0, -999.0
30-05-2022, 00:16:45,     26,    0.0,    6.1,   0.00,   0.00, 1012.6,   76.9, -999.0
30-05-2022, 00:16:54,     26,    0.0,    6.1,   0.00,   0.00, 1012.6,   76.9, -999.0
30-05-2022, 00:17:04,     26,    0.0,    6.1,   0.00,   0.00, 1012.6,   77.0, -999.0
30-05-2022, 00:17:15,     25,    0.0,    6.1,   0.00,   0.00, 1012.6,   77.1, -999.0
30-05-2022, 00:17:24,     26,    0.0,    6.1,   0.00,   0.00, 1012.6,   77.1, -999.0
30-05-2022, 00:17:34,     25,    0.0,    6.1,   0.00,   0.00, 1012.7,   77.0, -999.0
30-05-2022, 00:17:44,     26,    0.0,    6.1,   0.00,   0.00, 1012.7,   77.0, -999.0
30-05-2022, 00:17:54,     26,    0.0,    6.1,   0.00,   0.00, 1012.7,   77.0, -999.0
30-05-2022, 00:18:04,     25,    0.0,    6.1,   0.00,   0.00, 1012.7,   77.0, -999.0
30-05-2022, 00:18:14,     23,    0.0,    6.1,   0.00,   0.00, 1012.7,   77.0, -999.0
30-05-2022, 00:18:24,     26,    0.0,    6.1,   0.00,   0.00, 1012.7,   77.1, -999.0
30-05-2022, 00:18:34,     26,    0.0,    6.1,   0.00,   0.00, 1012.7,   77.0, -999.0
30-05-2022, 00:18:44,     25,    0.0,    6.1,   0.00,   0.00, 1012.7,   77.1, -999.0
30-05-2022, 00:18:54,     25,    0.0,    6.1,   0.00,   0.00, 1012.6,   77.0, -999.0
30-05-2022, 00:19:04,     26,    0.0,    6.1,   0.00,   0.00, 1012.7,   77.0, -999.0
30-05-2022, 00:19:14,     26,    0.0,    6.1,   0.00,   0.00, 1012.7,   77.0, -999.0
30-05-2022, 00:19:24,     26,    0.0,    6.1,   0.00,   0.00, 1012.6,   77.0, -999.0
30-05-2022, 00:19:34,     26,    0.0,    6.1,   0.00,   0.00, 1012.7,   76.9, -999.0
30-05-2022, 00:19:44,     26,    0.0,    6.1,   0.00,   0.00, 1012.6,   76.9, -999.0
30-05-2022, 00:19:54,     26,    0.0,    6.0,   0.00,   0.00, 1012.7,   77.0, -999.0
30-05-2022, 00:20:03,     25,    0.0,    6.0,   0.00,   0.00, 1012.6,   77.1, -999.0
30-05-2022, 00:20:13,     26,    0.0,    6.1,   0.00,   0.00, 1012.6,   77.1, -999.0
30-05-2022, 00:20:24,     26,    0.0,    6.1,   0.00,   0.00, 1012.7,   77.1, -999.0
30-05-2022, 00:20:33,     25,    0.0,    6.1,   0.00,   0.00, 1012.7,   77.1, -999.0
30-05-2022, 00:20:43,     26,    0.0,    6.0,   0.00,   0.00, 1012.6,   77.0, -999.0
30-05-2022, 00:20:53,     25,    0.0,    6.0,   0.00,   0.00, 1012.6,   77.1, -999.0
30-05-2022, 00:21:03,     26,    0.0,    6.0,   0.00,   0.00, 1012.6,   77.1, -999.0
30-05-2022, 00:21:13,     26,    0.0,    5.9,   0.00,   0.00, 1012.7,   77.2, -999.0
30-05-2022, 00:21:23,     25,    0.0,    6.0,   0.00,   0.00, 1012.6,   77.3, -999.0
30-05-2022, 00:21:33,     26,    0.0,    5.9,   0.00,   0.00, 1012.6,   77.2, -999.0
30-05-2022, 00:21:43,     26,    0.0,    5.9,   0.00,   0.00, 1012.6,   77.2, -999.0
30-05-2022, 00:21:53,     26,    0.0,    6.0,   0.00,   0.00, 1012.7,   77.2, -999.0
30-05-2022, 00:22:03,     26,    0.0,    5.9,   0.00,   0.00, 1012.7,   77.3, -999.0
30-05-2022, 00:22:13,     25,    0.0,    5.9,   0.00,   0.00, 1012.6,   77.4, -999.0
30-05-2022, 00:22:23,     25,    0.0,    5.9,   0.00,   0.00, 1012.6,   77.4, -999.0
30-05-2022, 00:22:33,     26,    0.0,    5.8,   0.00,   0.00, 1012.6,   77.4, -999.0
30-05-2022, 00:22:43,     25,    0.0,    5.9,   0.00,   0.00, 1012.6,   77.6, -999.0
30-05-2022, 00:22:53,     26,    0.0,    5.8,   0.00,   0.00, 1012.6,   77.5, -999.0
30-05-2022, 00:23:03,     25,    0.0,    5.9,   0.00,   0.00, 1012.6,   77.6, -999.0
30-05-2022, 00:23:13,     26,    0.0,    5.9,   0.00,   0.00, 1012.6,   77.6, -999.0
30-05-2022, 00:23:22,     26,    0.0,    5.9,   0.00,   0.00, 1012.6,   77.6, -999.0
30-05-2022, 00:23:33,     25,    0.0,    5.9,   0.00,   0.00, 1012.7,   77.7, -999.0
30-05-2022, 00:23:42,     25,    0.0,    5.9,   0.00,   0.00, 1012.6,   77.6, -999.0
30-05-2022, 00:23:52,     26,    0.0,    5.8,   0.00,   0.00, 1012.6,   77.6, -999.0
30-05-2022, 00:24:02,     25,    0.0,    5.9,   0.00,   0.00, 1012.6,   77.6, -999.0
30-05-2022, 00:24:12,     26,    0.0,    5.8,   0.00,   0.00, 1012.6,   77.5, -999.0
30-05-2022, 00:24:22,     26,    0.0,    5.8,   0.00,   0.00, 1012.6,   77.6, -999.0
30-05-2022, 00:24:32,     26,    0.0,    5.9,   0.00,   0.00, 1012.6,   77.6, -999.0
30-05-2022, 00:24:42,     26,    0.0,    5.9,   0.00,   0.00, 1012.6,   77.6, -999.0
30-05-2022, 00:24:52,     26,    0.0,    5.9,   0.00,   0.00, 1012.6,   77.7, -999.0
30-05-2022, 00:25:02,     26,    0.0,    5.9,   0.00,   0.00, 1012.6,   77.8, -999.0
30-05-2022, 00:25:12,     26,    0.0,    5.9,   0.00,   0.00, 1012.6,   77.7, -999.0
30-05-2022, 00:25:22,     26,    0.0,    5.9,   0.00,   0.00, 1012.6,   77.7, -999.0
30-05-2022, 00:25:32,     25,    0.0,    5.8,   0.00,   0.00, 1012.6,   77.6, -999.0
30-05-2022, 00:25:42,     26,    0.0,    5.8,   0.00,   0.00, 1012.6,   77.6, -999.0
30-05-2022, 00:25:52,     25,    0.0,    5.8,   0.00,   0.00, 1012.6,   77.5, -999.0
30-05-2022, 00:26:02,     25,    0.0,    5.8,   0.00,   0.00, 1012.6,   77.8, -999.0
30-05-2022, 00:26:12,     26,    0.0,    5.8,   0.00,   0.00, 1012.6,   77.9, -999.0
30-05-2022, 00:26:22,     25,    0.0,    5.9,   0.00,   0.00, 1012.6,   77.9, -999.0
30-05-2022, 00:26:32,     26,    0.0,    5.9,   0.00,   0.00, 1012.6,   78.0, -999.0
30-05-2022, 00:26:42,     26,    0.0,    5.7,   0.00,   0.00, 1012.6,   78.1, -999.0
30-05-2022, 00:26:51,     25,    0.0,    5.9,   0.00,   0.00, 1012.6,   78.1, -999.0
30-05-2022, 00:27:01,     26,    0.0,    5.9,   0.00,   0.00, 1012.6,   78.2, -999.0
30-05-2022, 00:27:12,     26,    0.0,    5.8,   0.00,   0.00, 1012.6,   78.1, -999.0
30-05-2022, 00:27:21,     26,    0.0,    5.9,   0.00,   0.00, 1012.6,   78.0, -999.0
30-05-2022, 00:27:31,     25,    0.0,    5.9,   0.00,   0.00, 1012.6,   78.1, -999.0
30-05-2022, 00:27:41,     26,    0.0,    5.9,   0.00,   0.00, 1012.5,   78.1, -999.0
30-05-2022, 00:27:51,     26,    0.0,    5.9,   0.00,   0.00, 1012.6,   78.1, -999.0
30-05-2022, 00:28:01,     26,    0.0,    5.8,   0.00,   0.00, 1012.5,   78.0, -999.0
30-05-2022, 00:28:11,     26,    0.0,    5.9,   0.00,   0.00, 1012.5,   77.9, -999.0
30-05-2022, 00:28:21,     25,    0.0,    5.9,   0.00,   0.00, 1012.5,   77.9, -999.0
30-05-2022, 00:28:31,     26,    0.0,    5.9,   0.00,   0.00, 1012.5,   77.9, -999.0
30-05-2022, 00:28:41,     26,    0.0,    5.9,   0.00,   0.00, 1012.5,   78.0, -999.0
30-05-2022, 00:28:51,     26,    0.0,    5.9,   0.00,   0.00, 1012.5,   78.0, -999.0
30-05-2022, 00:29:01,     26,    0.0,    5.9,   0.00,   0.00, 1012.6,   78.1, -999.0
30-05-2022, 00:29:11,     26,    0.0,    5.9,   0.00,   0.00, 1012.5,   77.9, -999.0
30-05-2022, 00:29:21,     25,    0.0,    5.8,   0.00,   0.00, 1012.5,   77.9, -999.0
30-05-2022, 00:29:31,     25,    0.0,    5.7,   0.00,   0.00, 1012.6,   77.9, -999.0
30-05-2022, 00:29:41,     26,    0.0,    5.8,   0.00,   0.00, 1012.5,   78.0, -999.0
30-05-2022, 00:29:51,     25,    0.0,    5.9,   0.00,   0.00, 1012.5,   78.2, -999.0
30-05-2022, 00:30:00,     25,    0.0,    5.8,   0.00,   0.00, 1012.5,   78.2, -999.0
30-05-2022, 00:30:10,     26,    0.0,    5.9,   0.00,   0.00, 1012.5,   78.2, -999.0
30-05-2022, 00:30:21,     26,    0.0,    5.8,   0.00,   0.00, 1012.5,   78.3, -999.0
30-05-2022, 00:30:30,     26,    0.0,    5.9,   0.00,   0.00, 1012.5,   78.1, -999.0
30-05-2022, 00:30:40,     26,    0.0,    5.8,   0.00,   0.00, 1012.5,   78.2, -999.0
30-05-2022, 00:30:50,     25,    0.0,    5.8,   0.00,   0.00, 1012.5,   78.2, -999.0
30-05-2022, 00:31:00,     26,    0.0,    5.8,   0.00,   0.00, 1012.5,   78.2, -999.0
30-05-2022, 00:31:10,     24,    0.0,    5.7,   0.00,   0.00, 1012.5,   78.2, -999.0
30-05-2022, 00:31:20,     25,    0.0,    5.9,   0.00,   0.00, 1012.5,   78.2, -999.0
30-05-2022, 00:31:30,     26,    0.0,    5.9,   0.00,   0.00, 1012.5,   78.3, -999.0
30-05-2022, 00:31:40,     26,    0.0,    5.9,   0.00,   0.00, 1012.5,   78.3, -999.0
30-05-2022, 00:31:50,     25,    0.0,    5.9,   0.00,   0.00, 1012.5,   78.3, -999.0
30-05-2022, 00:32:00,     25,    0.0,    5.9,   0.00,   0.00, 1012.5,   78.3, -999.0
30-05-2022, 00:32:10,     25,    0.0,    6.0,   0.00,   0.00, 1012.5,   78.3, -999.0
30-05-2022, 00:32:20,     25,    0.0,    5.9,   0.00,   0.00, 1012.5,   78.3, -999.0
30-05-2022, 00:32:30,     26,    0.0,    6.0,   0.00,   0.00, 1012.5,   78.3, -999.0
30-05-2022, 00:32:40,     26,    0.0,    6.0,   0.00,   0.00, 1012.5,   78.3, -999.0
30-05-2022, 00:32:50,     25,    0.0,    6.0,   0.00,   0.00, 1012.5,   78.5, -999.0
30-05-2022, 00:33:00,     26,    0.0,    6.0,   0.00,   0.00, 1012.5,   78.4, -999.0
30-05-2022, 00:33:10,     26,    0.0,    6.0,   0.00,   0.00, 1012.5,   78.4, -999.0
30-05-2022, 00:33:19,     26,    0.0,    6.1,   0.00,   0.00, 1012.5,   78.4, -999.0
30-05-2022, 00:33:30,     25,    0.0,    6.1,   0.00,   0.00, 1012.5,   78.5, -999.0
30-05-2022, 00:33:40,     26,    0.0,    6.0,   0.00,   0.00, 1012.5,   78.3, -999.0
30-05-2022, 00:33:49,     26,    0.0,    5.9,   0.00,   0.00, 1012.5,   78.2, -999.0
30-05-2022, 00:34:00,     26,    0.0,    6.0,   0.00,   0.00, 1012.4,   78.2, -999.0
30-05-2022, 00:34:09,     26,    0.0,    6.1,   0.00,   0.00, 1012.4,   78.3, -999.0
30-05-2022, 00:34:19,     25,    0.0,    6.1,   0.00,   0.00, 1012.5,   78.3, -999.0
30-05-2022, 00:34:29,     26,    0.0,    6.1,   0.00,   0.00, 1012.5,   78.4, -999.0
30-05-2022, 00:34:39,     26,    0.0,    6.1,   0.00,   0.00, 1012.4,   78.3, -999.0
30-05-2022, 00:34:49,     26,    0.0,    6.1,   0.00,   0.00, 1012.4,   78.4, -999.0
30-05-2022, 00:34:59,     26,    0.0,    6.1,   0.00,   0.00, 1012.5,   78.3, -999.0
30-05-2022, 00:35:09,     25,    0.0,    6.0,   0.00,   0.00, 1012.4,   78.1, -999.0
30-05-2022, 00:35:19,     25,    0.0,    6.1,   0.00,   0.00, 1012.5,   77.9, -999.0
30-05-2022, 00:35:29,     26,    0.0,    6.0,   0.00,   0.00, 1012.4,   78.0, -999.0
30-05-2022, 00:35:39,     26,    0.0,    6.1,   0.00,   0.00, 1012.4,   78.0, -999.0
30-05-2022, 00:35:49,     25,    0.0,    6.1,   0.00,   0.00, 1012.4,   78.0, -999.0
30-05-2022, 00:35:59,     26,    0.0,    6.0,   0.00,   0.00, 1012.4,   78.0, -999.0
30-05-2022, 00:36:09,     25,    0.0,    6.1,   0.00,   0.00, 1012.4,   78.0, -999.0
30-05-2022, 00:36:19,     26,    0.0,    6.1,   0.00,   0.00, 1012.4,   78.1, -999.0
30-05-2022, 00:36:28,     26,    0.0,    6.0,   0.00,   0.00, 1012.4,   78.2, -999.0
30-05-2022, 00:36:39,     25,    0.0,    6.1,   0.00,   0.00, 1012.4,   78.3, -999.0
30-05-2022, 00:36:49,     25,    0.0,    6.0,   0.00,   0.00, 1012.4,   78.2, -999.0
30-05-2022, 00:36:58,     25,    0.0,    6.1,   0.00,   0.00, 1012.4,   78.1, -999.0
30-05-2022, 00:37:09,     26,    0.0,    6.1,   0.00,   0.00, 1012.4,   78.2, -999.0
30-05-2022, 00:37:18,     26,    0.0,    6.1,   0.00,   0.00, 1012.4,   78.3, -999.0
30-05-2022, 00:37:28,     26,    0.0,    6.1,   0.00,   0.00, 1012.4,   78.2, -999.0
30-05-2022, 00:37:38,     26,    0.0,    6.2,   0.00,   0.00, 1012.4,   78.1, -999.0
30-05-2022, 00:37:48,     25,    0.0,    6.1,   0.00,   0.00, 1012.4,   78.0, -999.0
30-05-2022, 00:37:58,     26,    0.0,    6.1,   0.00,   0.00, 1012.4,   77.9, -999.0
30-05-2022, 00:38:08,     25,    0.0,    6.1,   0.00,   0.00, 1012.4,   78.0, -999.0
30-05-2022, 00:38:18,     26,    0.0,    6.1,   0.00,   0.00, 1012.4,   78.0, -999.0
30-05-2022, 00:38:28,     26,    0.0,    5.9,   0.00,   0.00, 1012.4,   77.9, -999.0
30-05-2022, 00:38:38,     26,    0.0,    6.0,   0.00,   0.00, 1012.4,   77.9, -999.0
30-05-2022, 00:38:48,     25,    0.0,    6.1,   0.00,   0.00, 1012.4,   78.0, -999.0
30-05-2022, 00:38:58,     26,    0.0,    6.1,   0.00,   0.00, 1012.4,   78.1, -999.0
30-05-2022, 00:39:08,     26,    0.0,    6.0,   0.00,   0.00, 1012.4,   78.0, -999.0
30-05-2022, 00:39:18,     26,    0.0,    6.1,   0.00,   0.00, 1012.4,   78.0, -999.0
30-05-2022, 00:39:28,     26,    0.0,    6.0,   0.00,   0.00, 1012.4,   78.0, -999.0
30-05-2022, 00:39:38,     26,    0.0,    6.0,   0.00,   0.00, 1012.4,   78.0, -999.0
30-05-2022, 00:39:48,     26,    0.0,    6.0,   0.00,   0.00, 1012.4,   78.0, -999.0
30-05-2022, 00:39:58,     26,    0.0,    6.1,   0.00,   0.00, 1012.3,   77.9, -999.0
30-05-2022, 00:40:07,     26,    0.0,    6.1,   0.00,   0.00, 1012.4,   78.0, -999.0
30-05-2022, 00:40:18,     26,    0.0,    6.1,   0.00,   0.00, 1012.4,   78.0, -999.0
30-05-2022, 00:40:28,     26,    0.0,    6.0,   0.00,   0.00, 1012.4,   78.0, -999.0
30-05-2022, 00:40:37,     25,    0.0,    6.0,   0.00,   0.00, 1012.4,   77.9, -999.0
30-05-2022, 00:40:47,     26,    0.0,    6.0,   0.00,   0.00, 1012.4,   77.9, -999.0
30-05-2022, 00:40:57,     26,    0.0,    6.0,   0.00,   0.00, 1012.4,   77.9, -999.0
30-05-2022, 00:41:07,     25,    0.0,    6.0,   0.00,   0.00, 1012.4,   78.0, -999.0
30-05-2022, 00:41:17,     26,    0.0,    6.0,   0.00,   0.00, 1012.3,   78.0, -999.0
30-05-2022, 00:41:27,     26,    0.0,    6.1,   0.00,   0.00, 1012.3,   78.1, -999.0
30-05-2022, 00:41:37,     25,    0.0,    6.1,   0.00,   0.00, 1012.3,   78.1, -999.0
30-05-2022, 00:41:47,     26,    0.0,    6.1,   0.00,   0.00, 1012.3,   78.3, -999.0
30-05-2022, 00:41:57,     26,    0.0,    6.1,   0.00,   0.00, 1012.3,   78.1, -999.0
30-05-2022, 00:42:07,     26,    0.0,    6.1,   0.00,   0.00, 1012.3,   78.0, -999.0
30-05-2022, 00:42:17,     26,    0.0,    6.0,   0.00,   0.00, 1012.3,   77.9, -999.0
30-05-2022, 00:42:27,     26,    0.0,    6.0,   0.00,   0.00, 1012.3,   78.0, -999.0
30-05-2022, 00:42:37,     26,    0.0,    6.0,   0.00,   0.00, 1012.3,   78.0, -999.0
30-05-2022, 00:42:47,     25,    0.0,    6.0,   0.00,   0.00, 1012.4,   77.9, -999.0
30-05-2022, 00:42:57,     26,    0.0,    6.0,   0.00,   0.00, 1012.3,   77.8, -999.0
30-05-2022, 00:43:07,     26,    0.0,    5.9,   0.00,   0.00, 1012.3,   77.9, -999.0
30-05-2022, 00:43:16,     26,    0.0,    6.0,   0.00,   0.00, 1012.3,   77.9, -999.0
30-05-2022, 00:43:27,     26,    0.0,    6.0,   0.00,   0.00, 1012.3,   77.9, -999.0
30-05-2022, 00:43:37,     25,    0.0,    6.0,   0.00,   0.00, 1012.3,   77.9, -999.0
30-05-2022, 00:43:46,     25,    0.0,    6.0,   0.00,   0.00, 1012.3,   77.9, -999.0
30-05-2022, 00:43:57,     25,    0.0,    6.0,   0.00,   0.00, 1012.3,   77.9, -999.0
30-05-2022, 00:44:06,     26,    0.0,    6.0,   0.00,   0.00, 1012.4,   78.0, -999.0
30-05-2022, 00:44:16,     26,    0.0,    6.0,   0.00,   0.00, 1012.3,   77.9, -999.0
30-05-2022, 00:44:26,     26,    0.0,    6.0,   0.00,   0.00, 1012.4,   78.1, -999.0
30-05-2022, 00:44:36,     26,    0.0,    6.0,   0.00,   0.00, 1012.3,   78.0, -999.0
30-05-2022, 00:44:46,     26,    0.0,    6.0,   0.00,   0.00, 1012.3,   78.0, -999.0
30-05-2022, 00:44:56,     26,    0.0,    6.0,   0.00,   0.00, 1012.3,   78.0, -999.0
30-05-2022, 00:45:06,     25,    0.0,    6.0,   0.00,   0.00, 1012.3,   78.1, -999.0
30-05-2022, 00:45:16,     26,    0.0,    6.0,   0.00,   0.00, 1012.3,   78.1, -999.0
30-05-2022, 00:45:26,     25,    0.0,    6.0,   0.00,   0.00, 1012.4,   78.0, -999.0
30-05-2022, 00:45:36,     26,    0.0,    6.0,   0.00,   0.00, 1012.3,   78.0, -999.0
30-05-2022, 00:45:46,     26,    0.0,    5.9,   0.00,   0.00, 1012.3,   78.1, -999.0
30-05-2022, 00:45:56,     26,    0.0,    5.9,   0.00,   0.00, 1012.3,   78.0, -999.0
30-05-2022, 00:46:06,     26,    0.0,    5.9,   0.00,   0.00, 1012.3,   78.1, -999.0
30-05-2022, 00:46:16,     25,    0.0,    5.9,   0.00,   0.00, 1012.3,   78.1, -999.0
30-05-2022, 00:46:26,     26,    0.0,    5.9,   0.00,   0.00, 1012.3,   78.0, -999.0
30-05-2022, 00:46:36,     26,    0.0,    5.8,   0.00,   0.00, 1012.3,   78.0, -999.0